Location: Mogi das Cruzes
(23.5170°S, 46.1830°W)
Time: 19:50:54
(UTC-03:00)

Tiangong - Visible Passes

Search period start: 19 June 2024 00:00
Search period end: 29 June 2024 00:00
Orbit: 378 x 384 km, 41.5° (Epoch: 19 June)

Date Brightness Start Highest point End Pass type
(mag) Time Alt. Az. Time Alt. Az. Time Alt. Az.
23 Jun 0.4 05:33:12 11° S 05:34:27 13° SSE 05:36:07 10° ESE visible
24 Jun -1.5 06:07:26 10° SW 06:10:28 49° SE 06:13:30 10° ENE visible
25 Jun -0.2 05:09:30 23° SE 05:09:30 23° SE 05:11:56 10° E visible
26 Jun -2.2 05:43:42 30° WSW 05:45:04 70° NW 05:48:10 10° NE visible
27 Jun 0.6 04:45:46 20° E 04:45:46 20° E 04:46:56 10° ENE visible
27 Jun 0.3 06:19:01 10° WNW 06:20:23 12° NW 06:21:46 10° NNW visible
28 Jun -0.6 05:19:58 26° NNW 05:19:58 26° NNW 05:22:05 10° NNE visible
